Location: Chevoux
(46.3801°N, 4.9476°E)
Time: 22:56:47
(UTC+00:00)

CSL-04 Debris - Pass Details

Date: 28 January 2021
Orbit: 827 x 847 km, 98.9° (Epoch: 04 March)

Event Time Altitude Azimuth Distance (km) Brightness Sun altitude
Rises 18:55:00 0° 172° (S) 3,355 7.3 -23.5°
Reaches altitude 10° 18:57:22 10° 175° (S) 2,425 6.5 -23.9°
Maximum altitude 19:02:42 66° 257° (WSW) 905 4.5 -24.8°
Drops below altitude 10° 19:08:05 10° 340° (NNW) 2,443 6.8 -25.7°
Sets 19:10:28 0° 343° (NNW) 3,382 7.6 -26.1°
